• In Czech Republic
  • List of Countries
  • For 7 days
  • Water Temperature
  • Satellite Maps
  • Weather Map
  • Weather Widgets
  • user-avatar
    Login

    Hourly Weather Cervinia

    Today, 21 January, Sunday

    Time Temperature Precipitation Wind Pressure Humidity
    00:00 +3°C° 0 mm 4 mps 661 mmHg 94%
    01:00 +1°C° 1.6 mm 4 mps 661 mmHg 94%
    02:00 +1°C° 1.6 mm 4 mps 662 mmHg 94%
    03:00 +1°C° 1.6 mm 5 mps 662 mmHg 94%
    04:00 +1°C° 1.6 mm 4 mps 663 mmHg 93%
    05:00 +1°C° 1.6 mm 4 mps 663 mmHg 93%
    06:00 +1°C° 0 mm 4 mps 664 mmHg 93%
    07:00 +1°C° 1.5 mm 4 mps 665 mmHg 92%
    08:00 +1°C° 1.5 mm 4 mps 665 mmHg 91%
    09:00 +1°C° 1.5 mm 4 mps 666 mmHg 89%
    10:00 +1°C° 1.4 mm 4 mps 666 mmHg 89%
    11:00 +3°C° 1.4 mm 4 mps 667 mmHg 88%
    12:00 +3°C° 1.4 mm 4 mps 667 mmHg 87%
    13:00 +3°C° 1.1 mm 4 mps 667 mmHg 87%
    14:00 +3°C° 1.1 mm 3 mps 667 mmHg 87%
    15:00 +2°C° 1.1 mm 3 mps 668 mmHg 86%
    16:00 +2°C° 0.9 mm 3 mps 668 mmHg 87%
    17:00 +2°C° 0.9 mm 3 mps 668 mmHg 87%
    18:00 +2°C° 0.9 mm 3 mps 668 mmHg 87%
    19:00 +2°C° 1.7 mm 3 mps 669 mmHg 88%
    20:00 +3°C° 1.7 mm 3 mps 669 mmHg 89%
    21:00 +3°C° 1.7 mm 3 mps 669 mmHg 90%
    22:00 +3°C° 1.5 mm 3 mps 669 mmHg 91%
    23:00 +4°C° 1.5 mm 3 mps 669 mmHg 91%

    Tomorrow, 22 January, Monday

    Time Temperature Precipitation Wind Pressure Humidity
    00:00 +4°C° 1.5 mm 3 mps 669 mmHg 92%
    01:00 +4°C° 1.8 mm 3 mps 669 mmHg 92%
    02:00 +4°C° 1.8 mm 3 mps 669 mmHg 92%
    03:00 +4°C° 1.8 mm 3 mps 669 mmHg 93%
    04:00 +4°C° 2.4 mm 3 mps 669 mmHg 93%
    05:00 +4°C° 2.4 mm 3 mps 669 mmHg 94%
    06:00 +4°C° 2.4 mm 3 mps 669 mmHg 94%
    07:00 +4°C° 2.8 mm 3 mps 669 mmHg 94%
    08:00 +4°C° 2.8 mm 3 mps 669 mmHg 94%
    09:00 +4°C° 2.8 mm 3 mps 669 mmHg 93%
    10:00 +5°C° 2.8 mm 3 mps 669 mmHg 93%
    11:00 +5°C° 2.8 mm 3 mps 669 mmHg 93%
    12:00 +5°C° 2.8 mm 3 mps 669 mmHg 93%
    13:00 +5°C° 2.6 mm 3 mps 668 mmHg 93%
    14:00 +5°C° 2.6 mm 3 mps 668 mmHg 93%
    15:00 +5°C° 2.6 mm 3 mps 668 mmHg 93%
    16:00 +5°C° 2.8 mm 3 mps 669 mmHg 93%
    17:00 +5°C° 2.8 mm 3 mps 669 mmHg 93%
    18:00 +4°C° 2.8 mm 3 mps 670 mmHg 93%
    19:00 +4°C° 0.4 mm 3 mps 670 mmHg 92%
    20:00 +4°C° 0.4 mm 3 mps 671 mmHg 92%
    21:00 +3°C° 0.4 mm 3 mps 671 mmHg 91%
    22:00 +3°C° 0.1 mm 3 mps 672 mmHg 91%
    23:00 +2°C° 0.1 mm 3 mps 672 mmHg 90%

    Day after tomorrow, 23 January, Tuesday

    Time Temperature Precipitation Wind Pressure Humidity
    00:00 +2°C° 0.1 mm 3 mps 672 mmHg 89%
    01:00 +2°C° 0 mm 2 mps 672 mmHg 87%
    02:00 +1°C° 0 mm 2 mps 672 mmHg 84%
    03:00 -1°C° 0 mm 2 mps 672 mmHg 81%
    04:00 -1°C° 0 mm 2 mps 673 mmHg 81%
    05:00 -2°C° 0 mm 2 mps 673 mmHg 80%
    06:00 -2°C° 0 mm 2 mps 673 mmHg 80%
    07:00 +1°C° 0 mm 2 mps 674 mmHg 80%
    08:00 +2°C° 0 mm 2 mps 675 mmHg 80%
    09:00 +3°C° 0 mm 2 mps 675 mmHg 80%
    10:00 +5°C° 0 mm 2 mps 675 mmHg 82%
    11:00 +6°C° 0 mm 2 mps 675 mmHg 84%
    12:00 +7°C° 0 mm 2 mps 675 mmHg 86%
    13:00 +7°C° 0 mm 1 mps 675 mmHg 86%
    14:00 +7°C° 0 mm 1 mps 675 mmHg 86%
    15:00 +7°C° 0 mm 1 mps 675 mmHg 86%
    16:00 +4°C° 0 mm 2 mps 675 mmHg 80%
    17:00 +3°C° 0 mm 2 mps 675 mmHg 74%
    18:00 +1°C° 0 mm 2 mps 676 mmHg 67%
    19:00 +1°C° 0 mm 2 mps 676 mmHg 64%
    20:00 +1°C° 0 mm 2 mps 676 mmHg 60%
    21:00 +1°C° 0 mm 2 mps 676 mmHg 56%
    22:00 +1°C° 0 mm 2 mps 676 mmHg 57%
    23:00 +2°C° 0 mm 1 mps 676 mmHg 58%

    24 January, Wednesday

    Time Temperature Precipitation Wind Pressure Humidity
    00:00 +3°C° 0 mm 1 mps 676 mmHg 58%
    01:00 +3°C° 0 mm 1 mps 676 mmHg 62%
    02:00 +3°C° 0 mm 1 mps 676 mmHg 65%
    03:00 +3°C° 0 mm 1 mps 676 mmHg 69%
    04:00 +3°C° 0 mm 1 mps 676 mmHg 71%
    05:00 +3°C° 0 mm 1 mps 676 mmHg 72%
    06:00 +2°C° 0 mm 1 mps 677 mmHg 74%
    07:00 +4°C° 0 mm 1 mps 677 mmHg 76%
    08:00 +5°C° 0 mm 1 mps 677 mmHg 77%
    09:00 +6°C° 0 mm 1 mps 678 mmHg 79%
    10:00 +7°C° 0 mm 1 mps 677 mmHg 83%
    11:00 +7°C° 0 mm 1 mps 677 mmHg 87%
    12:00 +8°C° 0 mm 1 mps 677 mmHg 91%
    13:00 +6°C° 0 mm 2 mps 677 mmHg 91%
    14:00 +6°C° 0 mm 2 mps 676 mmHg 92%
    15:00 +6°C° 0 mm 2 mps 676 mmHg 92%
    16:00 +5°C° 0 mm 2 mps 676 mmHg 89%
    17:00 +3°C° 0 mm 2 mps 676 mmHg 86%
    18:00 +2°C° 0 mm 2 mps 676 mmHg 83%
    19:00 +2°C° 0 mm 2 mps 676 mmHg 81%
    20:00 +2°C° 0 mm 2 mps 676 mmHg 80%
    21:00 +2°C° 0 mm 2 mps 676 mmHg 78%
    22:00 +2°C° 0 mm 2 mps 676 mmHg 78%
    23:00 +2°C° 0 mm 2 mps 675 mmHg 77%

    25 January, Thursday

    Time Temperature Precipitation Wind Pressure Humidity
    00:00 +2°C° 0 mm 2 mps 675 mmHg 76%
    01:00 +1°C° 0 mm 2 mps 675 mmHg 77%
    02:00 +1°C° 0 mm 2 mps 674 mmHg 78%
    03:00 +1°C° 0 mm 2 mps 674 mmHg 79%
    04:00 +1°C° 0 mm 2 mps 674 mmHg 80%
    05:00 +1°C° 0 mm 2 mps 674 mmHg 81%
    06:00 -1°C° 0 mm 2 mps 674 mmHg 82%
    07:00 +1°C° 0 mm 2 mps 674 mmHg 83%
    08:00 +2°C° 0 mm 2 mps 674 mmHg 84%
    09:00 +3°C° 0 mm 2 mps 674 mmHg 85%
    10:00 +4°C° 0 mm 2 mps 673 mmHg 88%
    11:00 +3°C° 0 mm 3 mps 673 mmHg 90%
    12:00 +4°C° 0 mm 3 mps 672 mmHg 93%
    13:00 +4°C° 0 mm 3 mps 672 mmHg 93%
    14:00 +4°C° 0 mm 3 mps 671 mmHg 93%
    15:00 +4°C° 0 mm 3 mps 671 mmHg 93%
    16:00 +3°C° 0 mm 3 mps 670 mmHg 93%
    17:00 +3°C° 0 mm 2 mps 670 mmHg 92%
    18:00 +3°C° 0 mm 2 mps 670 mmHg 92%
    19:00 +2°C° 0.1 mm 2 mps 670 mmHg 92%
    20:00 +2°C° 0.1 mm 2 mps 670 mmHg 92%
    21:00 +2°C° 0.1 mm 2 mps 669 mmHg 92%
    22:00 +1°C° 0.1 mm 3 mps 669 mmHg 91%
    23:00 +1°C° 0.1 mm 3 mps 669 mmHg 91%

    26 January, Friday

    Time Temperature Precipitation Wind Pressure Humidity
    00:00 +1°C° 0.1 mm 3 mps 668 mmHg 91%
    01:00 +2°C° 0.5 mm 2 mps 668 mmHg 93%
    02:00 +2°C° 0.5 mm 2 mps 668 mmHg 94%
    03:00 +1°C° 0.5 mm 2 mps 667 mmHg 95%
    04:00 +2°C° 1.5 mm 2 mps 667 mmHg 96%
    05:00 +2°C° 1.5 mm 2 mps 667 mmHg 96%
    06:00 +3°C° 1.5 mm 1 mps 667 mmHg 96%
    07:00 +3°C° 1.5 mm 1 mps 667 mmHg 96%
    08:00 +3°C° 1.5 mm 1 mps 667 mmHg 96%
    09:00 +3°C° 1.5 mm 1 mps 668 mmHg 96%
    10:00 +2°C° 1.5 mm 2 mps 668 mmHg 96%
    11:00 +2°C° 1.5 mm 2 mps 667 mmHg 95%
    12:00 +2°C° 1.5 mm 2 mps 667 mmHg 95%
    13:00 +2°C° 1.6 mm 2 mps 667 mmHg 95%
    14:00 0°C° 1.6 mm 3 mps 667 mmHg 95%
    15:00 0°C° 1.6 mm 3 mps 667 mmHg 95%
    16:00 0°C° 1 mm 3 mps 667 mmHg 94%
    17:00 -1°C° 1 mm 3 mps 668 mmHg 93%
    18:00 -1°C° 1 mm 3 mps 668 mmHg 92%
    19:00 -1°C° 0.7 mm 3 mps 668 mmHg 92%
    20:00 -2°C° 0.7 mm 3 mps 669 mmHg 92%
    21:00 -2°C° 0.7 mm 3 mps 669 mmHg 91%
    22:00 -2°C° 0.6 mm 3 mps 669 mmHg 91%
    23:00 -2°C° 0.6 mm 3 mps 669 mmHg 90%
    Show more